Location: Cardiff
(53.7833°N, 113.6000°W)
Time: 19:30:36
(UTC+00:00)

RS-15 - Pass Details

Date: 09 December 2023
Orbit: 1893 x 2151 km, 64.8° (Epoch: 24 February)

Event Time Altitude Azimuth Distance (km) Brightness Sun altitude
Exits shadow 08:52:51 34° 68° (ENE) 2,906 9.0 -55.0°
Drops below altitude 10° 08:58:44 10° 88° (E) 4,348 10.1 -54.5°
Sets 09:02:09 0° 94° (E) 5,321 10.6 -54.2°
